[[{"header":{"parameterUnit":"m.s-1","parameterCategory":2,"la1":30.2991,"la2":30.254,"lo1":-89.0895,"lo2":-89.0444,"dy":0.0017,"dx":0.0017,"nx":28,"ny":28,"refTime":"2025-06-02T03:00:00:Z","depth":"0","parameterNumber":2,"parameterNumberName":"U-component_of_CURRENTS"},"data":[0,0,0,0,0,0,0,0,0,0,0,0,0,0,0,0,0,0,0,0,0,0,0,0,0,0,0,0,0,0,0,0,0,0,0,0,0,0,0,0,0,0,0,0,0,0,0,0,0,0,0,0,0,0,0,0,0,0,0.326,0.3261,0,0.3364,0.3365,0.3366,0.3394,0.3394,0.3394,0.3393,0.3509,0.3512,0.3516,0,0,0,0,0,0,0,0,0,0,0,0,0,0.3021,0.3025,0.326,0.3261,0.3263,0.3364,0.3365,0.3366,0.3394,0.3394,0.3394,0.3393,0.3508,0.3512,0.3516,0,0,0,0,0,0,0,0,0,0,0,0,0,0.3122,0.3027,0.3259,0.3292,0.3296,0.3363,0.3365,0.3366,0.3394,0.3394,0.3394,0.3393,0.3507,0.3512,0.3517,0.3557,0,0,0.3532,0.3534,0,0,0,0,0,0,0,0,0.3116,0.313,0.3285,0.3289,0.3294,0.3368,0.3323,0.3432,0.3395,0.3354,0.3393,0.3393,0.3465,0.3474,0.349,0.3563,0.3568,0.3532,0.3535,0.3538,0.3539,0,0,0,0,0,0,0,0.3109,0.3126,0.3298,0.3287,0.3293,0.3279,0.3293,0.3343,0.3409,0.3357,0.336,0.3377,0.3467,0.3485,0.3493,0.3569,0.3532,0.3537,0.354,0.3542,0.367,0.367,0,0,0,0,0,0,0.3108,0.312,0.3295,0.3301,0.3206,0.3284,0.3299,0.3342,0.3408,0.3419,0.3377,0.3378,0.3476,0.3487,0.3497,0.3566,0.3538,0.3542,0.3545,0.3669,0.367,0.367,0,0,0,0,0,0,0.3103,0.3123,0.329,0.3213,0.3234,0.3289,0.3337,0.3345,0.3364,0.3424,0.3433,0.3388,0.3477,0.349,0.354,0.3569,0.3545,0.3549,0.3669,0.367,0.367,0.3692,0,0,0,0,0,0,0.3096,0.3121,0.3149,0.3214,0.3238,0.3345,0.3338,0.3347,0.3376,0.3378,0.3437,0.3447,0.3477,0.3532,0.3545,0.3576,0.3553,0.3669,0.3669,0.367,0.3691,0.3693,0.3695,0,0,0,0,0,0.3087,0.3141,0.315,0.3171,0.3277,0.3347,0.3358,0.3391,0.3377,0.3401,0.3424,0.3445,0.3545,0.3537,0.3552,0.3585,0.3668,0.3669,0.367,0.369,0.3693,0.3695,0,0,0,0,0,0,0.3047,0.3151,0.3162,0.3243,0.3291,0.3353,0.3387,0.3391,0.3427,0.3427,0.3458,0.3471,0.3533,0.3546,0.3535,0.3619,0.3607,0.3611,0.3617,0.3621,0.3623,0.3654,0.3557,0,0,0,0,0,0.3052,0.3127,0.3196,0.3259,0.3288,0.3329,0.3357,0.3378,0.342,0.3435,0.3466,0.3499,0.3549,0.3571,0.362,0.3665,0.3718,0.369,0.3693,0.3695,0.3728,0.3813,0.3827,0.3673,0.3673,0.3673,0,0,0.3049,0.312,0.3157,0.3255,0.3298,0.3343,0.3346,0.3402,0.3428,0.3444,0.3487,0.3522,0.3564,0.3622,0.3648,0.3634,0.3766,0.3696,0.3697,0.373,0.3815,0.3831,0.3845,0.3674,0.3673,0.3673,0,0,0.3089,0.3149,0.3219,0.326,0.3334,0.3363,0.3375,0.3432,0.3451,0.3488,0.3514,0.3563,0.361,0.3664,0.369,0.3732,0.3785,0.3733,0.3767,0.3848,0.3863,0.3876,0.3969,0.399,0.3722,0.3722,0.3722,0,0.3071,0.318,0.3242,0.3304,0.3334,0.3367,0.3411,0.3443,0.3498,0.3518,0.3502,0.3601,0.3638,0.3727,0.3743,0.3745,0.3799,0.3754,0.3855,0.3869,0.3882,0.3974,0.3998,0.3723,0.3723,0.3723,0.3723,0,0.3168,0.3228,0.3272,0.3361,0.3393,0.3448,0.3486,0.3514,0.3517,0.3542,0.3618,0.367,0.3726,0.3742,0.376,0.3873,0.3886,0.3858,0.3854,0.39,0.3993,0.4017,0.3725,0.3725,0.3724,0.3724,0,0,0.3178,0.3314,0.3319,0.3349,0.3426,0.3456,0.3503,0.356,0.3588,0.3628,0.3685,0.3766,0.379,0.3824,0.386,0.3934,0.4076,0.3939,0.3942,0.4044,0.4278,0.4207,0.4227,0.4065,0.4069,0.4072,0.4308,0,0.3225,0.334,0.339,0.3445,0.3496,0.3518,0.3552,0.3592,0.3628,0.3689,0.3753,0.3829,0.382,0.3865,0.3937,0.4053,0.414,0.4016,0.4209,0.4216,0.4157,0.4252,0.4012,0.4195,0.4332,0.4336,0.4339,0,0.3301,0.3363,0.3443,0.349,0.3509,0.3528,0.3576,0.3613,0.37,0.3734,0.3813,0.3873,0.4014,0.3986,0.4204,0.4125,0.4217,0.4291,0.4301,0.4251,0.419,0.4169,0.4234,0.4097,0.4376,0.4373,0.4371,0,0.3297,0.3385,0.3446,0.3467,0.3532,0.354,0.3559,0.362,0.3656,0.3784,0.3838,0.3979,0.4063,0.4203,0.4333,0.4293,0.4567,0.452,0.455,0.4546,0.439,0.4365,0.4357,0.4691,0.4691,0.469,0.4689,0,0.3349,0.3377,0.344,0.3469,0.3487,0.3526,0.3557,0.3599,0.3686,0.375,0.3863,0.3958,0.4122,0.4273,0.4391,0.4547,0.4609,0.4606,0.4614,0.4388,0.4361,0.4272,0.4228,0.4699,0.4697,0.4695,0.4694,0,0.3342,0.3406,0.3446,0.3494,0.3496,0.3497,0.3527,0.3559,0.3652,0.3752,0.3806,0.3975,0.4174,0.4332,0.4573,0.4605,0.4643,0.4809,0.4538,0.451,0.4377,0.4343,0.4293,0.4177,0.4903,0.4903,0.4902,0,0.3365,0.3396,0.343,0.3433,0.3448,0.3456,0.3464,0.3531,0.3577,0.3759,0.3817,0.4028,0.4165,0.4473,0.4573,0.4774,0.4645,0.4662,0.4537,0.4376,0.4347,0.4196,0.409,0.4355,0.435,0.4346,0.4343,0,0.3366,0.3371,0.3401,0.3407,0.3406,0.3402,0.3427,0.345,0.3556,0.366,0.3808,0.394,0.4194,0.4269,0.4488,0.4572,0.4395,0.459,0.4488,0.399,0.3764,0.3649,0.4211,0.4309,0.4313,0.4315,0.4317,0.4318,0.3339,0.3342,0.3374,0.3366,0.336,0.3337,0.3304,0.3366,0.3423,0.3535,0.3715,0.383,0.3968,0.4227,0.4287,0.417,0.4216,0.4055,0.4061,0.3949,0.3715,0.4217,0.4267,0.427,0.4273,0.4275,0.4277,0,0.3304,0.332,0.3325,0.3304,0.3261,0.3276,0.3269,0.3228,0.3259,0.3399,0.3517,0.3595,0.3654,0.3747,0.3748,0.3654,0.349,0.3551,0.3261,0.3211,0.3714,0.356,0.3377,0.3377,0.3377,0.3377,0.3377,0.3377,0.3295,0.3295,0.3298,0.3216,0.3182,0.3077,0.3045,0.301,0.3049,0.3065,0.3086,0.3184,0.335,0.341,0.3291,0.3215,0.2991,0.2839,0.2908,0.3223,0.3268,0.3311,0.3153,0.2887,0.2886,0.2201,0.2196,0.2192]},{"header":{"parameterUnit":"m.s-1","parameterCategory":2,"la1":30.2991,"la2":30.254,"lo1":-89.0895,"lo2":-89.0444,"dy":0.0017,"dx":0.0017,"nx":28,"ny":28,"refTime":"2025-06-02T03:00:00:Z","depth":"0","parameterNumber":3,"parameterNumberName":"V-component_of_CURRENTS"},"data":[0,0,0,0,0,0,0,0,0,0,0,0,0,0,0,0,0,0,0,0,0,0,0,0,0,0,0,0,0,0,0,0,0,0,0,0,0,0,0,0,0,0,0,0,0,0,0,0,0,0,0,0,0,0,0,0,0,0,0.0041,0.004,0,-0.0061,-0.0062,-0.0063,-0.0122,-0.0122,-0.0122,-0.0123,-0.0244,-0.0247,-0.025,0,0,0,0,0,0,0,0,0,0,0,0,0,0.0145,0.0144,0.0042,0.004,0.0039,-0.0061,-0.0062,-0.0063,-0.0122,-0.0122,-0.0123,-0.0123,-0.0243,-0.0247,-0.025,0,0,0,0,0,0,0,0,0,0,0,0,0,0.0078,0.0143,0.0042,-0.0003,-0.0008,-0.006,-0.0062,-0.0064,-0.0122,-0.0122,-0.0123,-0.0123,-0.0242,-0.0246,-0.0251,-0.0271,0,0,-0.0265,-0.0267,0,0,0,0,0,0,0,0,0.0082,0.0074,0.0005,0.0,-0.0006,-0.008,-0.007,-0.0134,-0.0122,-0.0078,-0.0123,-0.0123,-0.0191,-0.02,-0.0217,-0.0276,-0.0282,-0.0265,-0.0268,-0.027,-0.0271,0,0,0,0,0,0,0,0.0086,0.0078,0.0001,0.0004,-0.0003,-0.0032,-0.0041,-0.0083,-0.0131,-0.0082,-0.0086,-0.0099,-0.0194,-0.0213,-0.022,-0.0283,-0.0265,-0.0269,-0.0272,-0.0273,-0.0323,-0.0322,0,0,0,0,0,0,0.01,0.0083,0.0005,-0.0002,0.0037,-0.0033,-0.0044,-0.0055,-0.013,-0.0142,-0.0098,-0.0101,-0.0205,-0.0215,-0.0225,-0.0204,-0.027,-0.0274,-0.0276,-0.0324,-0.0323,-0.0321,0,0,0,0,0,0,0.0103,0.0095,0.0009,0.0038,0.0025,-0.0034,-0.0046,-0.0057,-0.0074,-0.0143,-0.0155,-0.0105,-0.0205,-0.0219,-0.0253,-0.0211,-0.0276,-0.028,-0.0326,-0.0324,-0.0322,-0.0193,0,0,0,0,0,0,0.0107,0.0096,0.0094,0.0039,0.0023,-0.0016,-0.0046,-0.0058,-0.0081,-0.0086,-0.0152,-0.0164,-0.0207,-0.0246,-0.0258,-0.0218,-0.0283,-0.0328,-0.0325,-0.0323,-0.0199,-0.0187,-0.0176,0,0,0,0,0,0.0111,0.0109,0.0095,0.0085,0.0022,-0.0016,-0.0026,-0.0069,-0.0081,-0.0086,-0.0126,-0.0162,-0.0237,-0.0249,-0.0263,-0.0224,-0.0329,-0.0326,-0.0323,-0.0204,-0.0189,-0.0176,0,0,0,0,0,0,0.0151,0.0101,0.0085,0.0068,0.0033,-0.0026,-0.0035,-0.0062,-0.0098,-0.01,-0.0159,-0.0174,-0.0183,-0.0227,-0.0238,-0.023,-0.0283,-0.0283,-0.0188,-0.0175,-0.0164,-0.0126,-0.0287,0,0,0,0,0,0.0161,0.0148,0.0097,0.0086,0.0072,0.0022,0.0002,-0.0025,-0.0066,-0.0082,-0.0126,-0.0163,-0.0181,-0.0197,-0.0231,-0.0238,-0.0259,-0.0218,-0.0206,-0.0196,-0.0174,-0.0162,-0.0146,-0.0311,-0.0311,-0.0311,0,0,0.0172,0.0145,0.0136,0.0094,0.0065,0.0063,0.0009,-0.0014,-0.0002,-0.0089,-0.009,-0.0132,-0.0175,-0.0174,-0.0181,-0.0206,-0.0163,-0.0192,-0.0183,-0.0167,-0.0157,-0.014,-0.0126,-0.0309,-0.031,-0.031,0,0,0.0195,0.0168,0.0168,0.0151,0.0114,0.009,0.0089,0.0038,0.0029,0.001,-0.0026,-0.0037,-0.0097,-0.0095,-0.0105,-0.0052,-0.0104,-0.0071,0.0018,0.0031,0.0045,0.0058,0.0045,0.0055,-0.0063,-0.0062,-0.0062,0,0.0212,0.0213,0.0163,0.0169,0.0174,0.0113,0.0135,0.0116,0.0063,0.0073,0.0025,0.0001,-0.0045,0.0004,0.0017,-0.0021,-0.0041,-0.0028,0.0049,0.006,0.0071,0.0055,0.0064,-0.0056,-0.0057,-0.0057,-0.0058,0,0.0239,0.0249,0.0252,0.025,0.0246,0.0252,0.0229,0.0228,0.0205,0.0183,0.0203,0.0147,0.014,0.0128,0.0081,0.0147,0.0099,0.0062,0.002,0.0096,0.0073,0.0081,-0.0046,-0.0049,-0.0051,-0.0052,0,0,0.0257,0.0271,0.0275,0.0307,0.0299,0.0302,0.0338,0.0355,0.0392,0.0344,0.0404,0.0367,0.0332,0.0321,0.0278,0.0283,0.0324,0.0204,0.0201,0.0203,0.0332,0.0278,0.028,0.0295,0.0297,0.0299,0.0284,0,0.03,0.0353,0.0345,0.0411,0.0444,0.0432,0.0477,0.0486,0.0476,0.051,0.0487,0.0505,0.041,0.0417,0.0412,0.035,0.0351,0.0331,0.0249,0.0247,0.0199,0.029,0.0274,0.0258,0.0291,0.0292,0.0293,0,0.0332,0.0373,0.0449,0.0524,0.0537,0.0564,0.0642,0.0667,0.0698,0.07,0.0715,0.0676,0.0698,0.0601,0.0552,0.0537,0.045,0.0391,0.0388,0.0303,0.0208,0.0188,0.027,0.0103,0.0304,0.0303,0.0303,0,0.0384,0.0449,0.0525,0.0546,0.061,0.0653,0.0683,0.072,0.0774,0.0823,0.0871,0.0857,0.0868,0.0783,0.0638,0.06,0.057,0.0502,0.0378,0.0371,0.0327,0.0313,0.0252,0.0482,0.0482,0.0482,0.0482,0,0.0439,0.05,0.0553,0.0596,0.0696,0.0711,0.0808,0.084,0.0914,0.1011,0.0969,0.1053,0.0911,0.0865,0.0717,0.0578,0.0631,0.0423,0.0382,0.0367,0.0358,0.0182,0.0077,0.0482,0.0482,0.0482,0.0482,0,0.0481,0.0516,0.0606,0.0689,0.0719,0.0784,0.0886,0.0961,0.1017,0.1155,0.119,0.1205,0.115,0.099,0.0851,0.0684,0.0453,0.0485,0.0462,0.042,0.0134,0.0037,-0.0066,-0.0134,0.036,0.0359,0.0358,0,0.051,0.056,0.0667,0.0725,0.0761,0.0854,0.0932,0.1007,0.1102,0.1262,0.1352,0.1346,0.1381,0.1147,0.0857,0.0612,0.0436,0.0401,0.0332,0.0146,0.0009,-0.0057,-0.0111,0.0315,0.0314,0.0313,0.0312,0,0.0575,0.0604,0.0678,0.0793,0.0879,0.0993,0.1107,0.1208,0.1332,0.1473,0.1641,0.1688,0.1467,0.1218,0.0845,0.0658,0.0276,0.037,0.0203,0.0004,-0.0094,-0.0188,0.0271,0.0303,0.0304,0.0305,0.0305,0.0306,0.0619,0.0677,0.0765,0.0874,0.0981,0.1131,0.1246,0.1402,0.1598,0.1837,0.1847,0.1952,0.1534,0.1042,0.0756,0.0191,0.0211,0.0015,-0.0077,-0.0119,-0.0207,0.0221,0.0187,0.0187,0.0187,0.0188,0.0188,0,0.068,0.0744,0.0846,0.0987,0.1115,0.1161,0.1372,0.1518,0.1776,0.1975,0.2129,0.1958,0.1472,0.0942,0.0183,-0.0186,-0.0308,-0.0389,-0.0482,-0.0507,-0.01,-0.0126,-0.0258,-0.0258,-0.0258,-0.0258,-0.0258,-0.0258,0.0719,0.0818,0.087,0.1079,0.1185,0.1378,0.1511,0.1744,0.1919,0.2158,0.2207,0.2213,0.1758,0.0458,-0.04,-0.0586,-0.0826,-0.0899,-0.0997,-0.0737,-0.0706,-0.0676,-0.0723,-0.0979,-0.098,-0.1352,-0.1356,-0.136]}],[{"header":{"parameterUnit":"m.s-1","parameterCategory":2,"la1":30.2991,"la2":30.254,"lo1":-89.0895,"lo2":-89.0444,"dy":0.0017,"dx":0.0017,"nx":28,"ny":28,"refTime":"2025-06-02T03:00:00:Z","depth":"2","parameterNumber":2,"parameterNumberName":"U-component_of_CURRENTS"},"data":[0,0,0,0,0,0,0,0,0,0,0,0,0,0,0,0,0,0,0,0,0,0,0,0,0,0,0,0,0,0,0,0,0,0,0,0,0,0,0,0,0,0,0,0,0,0,0,0,0,0,0,0,0,0,0,0,0,0,0.3088,0.3088,0,0.3038,0.3036,0.3035,0.304,0.3042,0.3043,0.3045,0.3045,0.3043,0.3041,0,0,0,0,0,0,0,0,0,0,0,0,0,0.273,0.2738,0.3087,0.3088,0.3088,0.3038,0.3036,0.3034,0.304,0.3042,0.3044,0.3046,0.3045,0.3043,0.3041,0,0,0,0,0,0,0,0,0,0,0,0,0,0.2794,0.2741,0.3087,0.3093,0.3093,0.3038,0.3036,0.3034,0.3039,0.3042,0.3044,0.3047,0.3046,0.3043,0.3041,0.2973,0,0,0.3033,0.3032,0,0,0,0,0,0,0,0,0.2791,0.2806,0.3091,0.3092,0.3093,0.3057,0.291,0.302,0.3038,0.3048,0.3045,0.3048,0.3058,0.3055,0.3024,0.2973,0.2973,0.3033,0.3032,0.303,0.303,0,0,0,0,0,0,0,0.2787,0.2806,0.3057,0.3092,0.3093,0.2941,0.2956,0.2927,0.3032,0.3048,0.3051,0.3061,0.3058,0.3026,0.3024,0.2973,0.3033,0.3031,0.3029,0.3028,0.3105,0.3109,0,0,0,0,0,0,0.2838,0.2805,0.3059,0.3057,0.2957,0.2948,0.2964,0.3057,0.3031,0.3032,0.3059,0.3062,0.3029,0.3027,0.3024,0.3119,0.303,0.3028,0.3027,0.3102,0.3106,0.311,0,0,0,0,0,0,0.2832,0.2864,0.3061,0.2931,0.2947,0.2956,0.3057,0.3055,0.3066,0.3041,0.3042,0.3079,0.3031,0.3028,0.3052,0.3113,0.3027,0.3025,0.3098,0.3103,0.3108,0.3195,0,0,0,0,0,0,0.2823,0.2864,0.2924,0.2939,0.2958,0.307,0.3055,0.3053,0.3071,0.3075,0.3057,0.3057,0.3033,0.3056,0.305,0.3108,0.3023,0.3093,0.31,0.3106,0.3188,0.3203,0.3216,0,0,0,0,0,0.2811,0.2884,0.293,0.2958,0.3053,0.3072,0.3066,0.3067,0.307,0.3083,0.3083,0.306,0.3096,0.3055,0.3047,0.3106,0.309,0.3098,0.3106,0.3182,0.32,0.3215,0,0,0,0,0,0,0.2739,0.2893,0.2943,0.3059,0.3089,0.3078,0.3077,0.3085,0.3085,0.3095,0.3071,0.3071,0.3129,0.3105,0.3061,0.3158,0.3102,0.3109,0.3163,0.318,0.3193,0.319,0.3021,0,0,0,0,0,0.2764,0.2886,0.2964,0.3055,0.3076,0.3082,0.3083,0.3099,0.3108,0.311,0.311,0.3121,0.3144,0.3152,0.3161,0.3179,0.3195,0.3228,0.3242,0.3253,0.3251,0.3338,0.3359,0.3136,0.3136,0.3136,0,0,0.2746,0.286,0.2916,0.3049,0.3063,0.3091,0.3088,0.3117,0.3145,0.3108,0.3144,0.3164,0.3164,0.3209,0.3234,0.3199,0.3333,0.3263,0.3273,0.3264,0.3348,0.337,0.3389,0.3141,0.314,0.314,0,0,0.2758,0.2891,0.2974,0.3017,0.3092,0.3102,0.3129,0.3158,0.3181,0.3207,0.3222,0.328,0.3276,0.3312,0.332,0.3413,0.3409,0.3437,0.3488,0.3573,0.3591,0.3607,0.3678,0.37,0.3436,0.3436,0.3436,0,0.2724,0.2887,0.2977,0.3048,0.3084,0.3122,0.3162,0.3176,0.3214,0.3243,0.3241,0.3318,0.3325,0.3402,0.3449,0.3443,0.3485,0.3415,0.3589,0.3605,0.362,0.3688,0.3711,0.3441,0.3441,0.344,0.344,0,0.2798,0.2904,0.2942,0.3083,0.3113,0.3163,0.3212,0.3253,0.3285,0.3307,0.3402,0.3425,0.3473,0.351,0.3495,0.3626,0.3623,0.36,0.3537,0.3647,0.3713,0.3735,0.3449,0.3447,0.3445,0.3444,0,0,0.2814,0.2967,0.2989,0.3043,0.3152,0.3181,0.3241,0.3312,0.3361,0.3413,0.3492,0.3557,0.3589,0.3606,0.3636,0.3712,0.3865,0.3706,0.3708,0.376,0.4061,0.3881,0.3887,0.3879,0.3883,0.3886,0.4071,0,0.2852,0.2972,0.3052,0.3131,0.3184,0.3246,0.3293,0.3356,0.3412,0.3492,0.356,0.3639,0.3621,0.3676,0.3749,0.3843,0.3925,0.3817,0.396,0.3964,0.3777,0.3907,0.3547,0.3666,0.4092,0.4096,0.4098,0,0.2938,0.3008,0.3091,0.3186,0.3214,0.3254,0.3362,0.3409,0.3515,0.3564,0.3654,0.3709,0.3844,0.3813,0.4004,0.3941,0.4009,0.4068,0.4076,0.3884,0.3823,0.3623,0.3689,0.4135,0.4132,0.4129,0.4127,0,0.2938,0.3054,0.3124,0.3161,0.3251,0.3297,0.3342,0.3435,0.3486,0.3631,0.3695,0.3831,0.3917,0.4035,0.4132,0.4098,0.4332,0.4295,0.4198,0.4186,0.3891,0.3844,0.4436,0.4436,0.4435,0.4435,0.4434,0,0.2996,0.3058,0.3127,0.3163,0.3229,0.3294,0.3372,0.3438,0.3544,0.3621,0.3734,0.3831,0.398,0.4111,0.4194,0.4254,0.4381,0.4229,0.4228,0.3912,0.3868,0.4266,0.4244,0.4442,0.444,0.4439,0.4438,0,0.3012,0.3067,0.3137,0.3211,0.3235,0.3281,0.3364,0.3413,0.3524,0.3641,0.3699,0.3866,0.4029,0.4154,0.4354,0.4303,0.4406,0.4395,0.4,0.3946,0.4195,0.4176,0.4319,0.4314,0.431,0.4307,0.4304,0,0.3037,0.3075,0.3145,0.3164,0.3205,0.3266,0.33,0.3396,0.3453,0.3655,0.3714,0.3903,0.3971,0.4158,0.4128,0.4204,0.4376,0.393,0.3774,0.4201,0.4188,0.4174,0.4161,0.3451,0.3441,0.3434,0.3427,0,0.3052,0.3081,0.3114,0.3148,0.3186,0.3221,0.3285,0.3314,0.3444,0.3537,0.368,0.3751,0.3845,0.3713,0.3751,0.3758,0.3876,0.3767,0.4365,0.3502,0.3388,0.3372,0.3387,0.3358,0.3365,0.337,0.3374,0.3376,0.3046,0.3058,0.3085,0.3114,0.315,0.3158,0.3145,0.321,0.3263,0.3295,0.347,0.3426,0.3432,0.3253,0.3211,0.3186,0.3436,0.3336,0.3359,0.3391,0.3223,0.3104,0.2991,0.2995,0.3,0.3003,0.3006,0,0.2987,0.3014,0.3041,0.3045,0.3036,0.3098,0.3114,0.3023,0.3018,0.3045,0.3056,0.2759,0.2628,0.2715,0.2507,0.2492,0.246,0.247,0.2415,0.2485,0.2546,0.2334,0.1868,0.1865,0.1862,0.186,0,0,0.2951,0.2936,0.2939,0.2906,0.2932,0.2873,0.2854,0.2712,0.2659,0.248,0.2401,0.243,0.2565,0.2157,0.2112,0.1972,0.2218,0.1898,0.2804,0.2805,0.2863,0.3031,0.2779,0,0,0,0,0]},{"header":{"parameterUnit":"m.s-1","parameterCategory":2,"la1":30.2991,"la2":30.254,"lo1":-89.0895,"lo2":-89.0444,"dy":0.0017,"dx":0.0017,"nx":28,"ny":28,"refTime":"2025-06-02T03:00:00:Z","depth":"2","parameterNumber":3,"parameterNumberName":"V-component_of_CURRENTS"},"data":[0,0,0,0,0,0,0,0,0,0,0,0,0,0,0,0,0,0,0,0,0,0,0,0,0,0,0,0,0,0,0,0,0,0,0,0,0,0,0,0,0,0,0,0,0,0,0,0,0,0,0,0,0,0,0,0,0,0,-0.016,-0.0161,0,-0.0337,-0.034,-0.0342,-0.0404,-0.0403,-0.0402,-0.0401,-0.0589,-0.0595,-0.0601,0,0,0,0,0,0,0,0,0,0,0,0,0,-0.0028,-0.003,-0.016,-0.0162,-0.0163,-0.0337,-0.034,-0.0343,-0.0405,-0.0403,-0.0402,-0.04,-0.0587,-0.0595,-0.0602,0,0,0,0,0,0,0,0,0,0,0,0,0,-0.0138,-0.0031,-0.016,-0.0211,-0.0217,-0.0336,-0.034,-0.0344,-0.0405,-0.0403,-0.0401,-0.04,-0.0585,-0.0594,-0.0603,-0.0695,0,0,-0.0631,-0.0635,0,0,0,0,0,0,0,0,-0.0132,-0.0144,-0.0202,-0.0207,-0.0214,-0.0342,-0.0362,-0.046,-0.0405,-0.0339,-0.0401,-0.0399,-0.0505,-0.0521,-0.0566,-0.0704,-0.0712,-0.0632,-0.0637,-0.0641,-0.0644,0,0,0,0,0,0,0,-0.0124,-0.0137,-0.0236,-0.0203,-0.0211,-0.0277,-0.029,-0.0382,-0.0435,-0.0345,-0.0349,-0.036,-0.0509,-0.0557,-0.0571,-0.0715,-0.0632,-0.064,-0.0645,-0.0649,-0.0769,-0.0767,0,0,0,0,0,0,-0.0085,-0.013,-0.023,-0.0241,-0.0162,-0.028,-0.0295,-0.0307,-0.0434,-0.0449,-0.0361,-0.0362,-0.0542,-0.056,-0.0578,-0.0557,-0.0641,-0.065,-0.0655,-0.0771,-0.0769,-0.0766,0,0,0,0,0,0,-0.0082,-0.0093,-0.0223,-0.0185,-0.0205,-0.0282,-0.0297,-0.0312,-0.0345,-0.0445,-0.0461,-0.0377,-0.0542,-0.0565,-0.0625,-0.0569,-0.0654,-0.0662,-0.0774,-0.0771,-0.0767,-0.0603,0,0,0,0,0,0,-0.0077,-0.009,-0.0094,-0.0182,-0.0205,-0.0273,-0.0299,-0.0316,-0.0353,-0.0356,-0.0465,-0.0481,-0.0542,-0.0611,-0.0634,-0.0584,-0.067,-0.0777,-0.0773,-0.0768,-0.0612,-0.0595,-0.058,0,0,0,0,0,-0.0072,-0.0087,-0.0093,-0.0105,-0.0204,-0.0272,-0.0291,-0.0345,-0.0355,-0.037,-0.0426,-0.0477,-0.0598,-0.0619,-0.0646,-0.0596,-0.0779,-0.0774,-0.0769,-0.0619,-0.0598,-0.0581,0,0,0,0,0,0,-0.0037,-0.0096,-0.0105,-0.0136,-0.0184,-0.028,-0.0308,-0.0339,-0.0402,-0.0399,-0.0485,-0.0507,-0.0528,-0.0593,-0.0613,-0.0612,-0.0683,-0.0683,-0.0559,-0.0541,-0.0525,-0.0494,-0.0677,0,0,0,0,0,-0.0027,-0.0048,-0.0109,-0.0131,-0.0153,-0.0226,-0.0262,-0.0291,-0.0355,-0.0381,-0.0443,-0.0497,-0.0536,-0.0561,-0.062,-0.0652,-0.0692,-0.0624,-0.0608,-0.0594,-0.0584,-0.0579,-0.0561,-0.0749,-0.0749,-0.0749,0,0,-0.002,-0.0053,-0.0066,-0.0124,-0.0172,-0.0192,-0.0245,-0.0288,-0.0282,-0.0394,-0.041,-0.0463,-0.0534,-0.0544,-0.0557,-0.0588,-0.0563,-0.0588,-0.0575,-0.0573,-0.0572,-0.0553,-0.0537,-0.0746,-0.0746,-0.0747,0,0,-0.0027,-0.0044,-0.0068,-0.0091,-0.0141,-0.0172,-0.0172,-0.0244,-0.0252,-0.0287,-0.0331,-0.0344,-0.0441,-0.0447,-0.047,-0.041,-0.0484,-0.042,-0.0316,-0.031,-0.0294,-0.0281,-0.0312,-0.0303,-0.0404,-0.0404,-0.0404,0,-0.0013,-0.0034,-0.0086,-0.0103,-0.0094,-0.0148,-0.0141,-0.0172,-0.0242,-0.0228,-0.0263,-0.0319,-0.0382,-0.0354,-0.032,-0.0371,-0.0399,-0.0382,-0.0288,-0.0276,-0.0265,-0.03,-0.0292,-0.0395,-0.0396,-0.0397,-0.0398,0,-0.004,-0.0034,-0.0046,-0.006,-0.0067,-0.0067,-0.0086,-0.0081,-0.0088,-0.0111,-0.0091,-0.0163,-0.0182,-0.0188,-0.0247,-0.018,-0.0235,-0.0273,-0.0333,-0.0236,-0.028,-0.0274,-0.0383,-0.0386,-0.0389,-0.0391,0,0,-0.0036,-0.0057,-0.0048,-0.0014,-0.0021,-0.0021,0.0014,0.0038,0.0086,0.004,0.0106,0.0055,0.0029,0.0004,-0.0044,-0.0037,0.0009,-0.0113,-0.0117,-0.0139,-0.0002,-0.007,-0.0073,-0.0011,-0.0009,-0.0007,-0.0064,0,-0.002,-0.0012,-0.0019,0.0043,0.0065,0.0083,0.013,0.0152,0.0163,0.0207,0.0181,0.0199,0.01,0.0117,0.0108,0.0039,0.0031,0.0026,-0.0098,-0.0102,-0.017,-0.0065,-0.0053,-0.0104,-0.006,-0.0059,-0.0058,0,-0.0027,0.0,0.0051,0.0147,0.0161,0.0198,0.0317,0.0346,0.039,0.0404,0.042,0.0382,0.0397,0.0303,0.023,0.023,0.0128,0.006,0.0056,-0.0061,-0.0159,-0.0194,-0.0097,-0.0051,-0.0051,-0.0052,-0.0052,0,0.002,0.0071,0.0136,0.0161,0.0232,0.0297,0.035,0.0409,0.0475,0.0539,0.0597,0.057,0.0584,0.0477,0.0324,0.0285,0.0234,0.0159,-0.0006,-0.0015,-0.0056,-0.0071,0.0109,0.0109,0.0109,0.0109,0.0109,0,0.0056,0.0123,0.0169,0.0211,0.0338,0.0364,0.0496,0.0545,0.0634,0.0742,0.0703,0.0785,0.0632,0.0575,0.0404,0.0227,0.0291,0.0032,-0.0015,-0.0001,-0.0009,-0.0011,-0.0024,0.0107,0.0107,0.0108,0.0108,0,0.0095,0.0112,0.0208,0.0308,0.0352,0.0445,0.059,0.0682,0.0755,0.0905,0.0944,0.0957,0.0885,0.0704,0.0537,0.0337,0.0173,0.0085,0.0092,0.0047,-0.0112,-0.0116,-0.0106,-0.0108,-0.011,-0.0112,-0.0113,0,0.011,0.0152,0.0279,0.035,0.0405,0.0537,0.0635,0.0735,0.0843,0.1019,0.1108,0.1096,0.1086,0.0804,0.0488,0.0184,0.0163,-0.0021,-0.0099,-0.0077,-0.0124,-0.0125,-0.0126,-0.0096,-0.0097,-0.0098,-0.0099,0,0.0168,0.0207,0.0283,0.0418,0.0533,0.0677,0.0826,0.0931,0.1076,0.1214,0.1374,0.1384,0.1117,0.0821,0.0396,0.0188,0.0027,-0.0057,0.0018,-0.0051,-0.0074,-0.0119,-0.0119,-0.0108,-0.0107,-0.0106,-0.0106,-0.0105,0.0216,0.0274,0.0359,0.0494,0.0637,0.0811,0.0947,0.1114,0.1308,0.1507,0.1505,0.1511,0.1176,0.0611,0.0286,-0.006,-0.007,-0.0211,-0.0204,-0.0198,-0.0193,-0.0219,-0.0281,-0.0281,-0.0282,-0.0282,-0.0282,0,0.0252,0.0315,0.0434,0.0595,0.0755,0.084,0.1075,0.1223,0.1471,0.1571,0.1666,0.1347,0.1001,0.0651,0.0107,-0.0238,-0.0244,-0.0315,-0.0245,-0.0235,-0.0227,-0.0221,-0.0318,-0.0319,-0.032,-0.032,0,0,0.0268,0.0347,0.0398,0.0645,0.0801,0.1048,0.12,0.1434,0.1558,0.1657,0.1634,0.151,0.1079,0.0684,0.0257,-0.0023,-0.0052,-0.0081,-0.0024,0.0117,0.013,-0.0149,-0.0128,0,0,0,0,0]}],[{"header":{"parameterUnit":"m.s-1","parameterCategory":2,"la1":30.2991,"la2":30.254,"lo1":-89.0895,"lo2":-89.0444,"dy":0.0017,"dx":0.0017,"nx":28,"ny":28,"refTime":"2025-06-02T03:00:00:Z","depth":"4","parameterNumber":2,"parameterNumberName":"U-component_of_CURRENTS"},"data":[0,0,0,0,0,0,0,0,0,0,0,0,0,0,0,0,0,0,0,0,0,0,0,0,0,0,0,0,0,0,0,0,0,0,0,0,0,0,0,0,0,0,0,0,0,0,0,0,0,0,0,0,0,0,0,0,0,0,0.0359,0.0358,0,0.0365,0.0366,0.0367,0.0436,0.0436,0.0437,0.0438,0.0655,0.066,0.0665,0,0,0,0,0,0,0,0,0,0,0,0,0,0.0741,0.0732,0.0359,0.0358,0.0357,0.0365,0.0366,0.0367,0.0436,0.0436,0.0437,0.0438,0.0653,0.066,0.0666,0,0,0,0,0,0,0,0,0,0,0,0,0,0.0654,0.073,0.0359,0.0384,0.0385,0.0364,0.0366,0.0367,0.0435,0.0436,0.0437,0.0438,0.0651,0.0659,0.0667,0.0694,0,0,0.069,0.0694,0,0,0,0,0,0,0,0,0.0658,0.0641,0.0381,0.0382,0.0383,0.039,0.058,0.0483,0.0435,0.0429,0.0438,0.0439,0.0578,0.0592,0.0604,0.0704,0.0714,0.0691,0.0696,0.0699,0.0701,0,0,0,0,0,0,0,0.0664,0.0643,0.0373,0.038,0.0381,0.0508,0.0495,0.0563,0.0511,0.0429,0.0431,0.0413,0.0582,0.0596,0.061,0.0717,0.0691,0.0698,0.0702,0.0705,0.1008,0.1011,0,0,0,0,0,0,0.0619,0.0645,0.0373,0.0372,0.0513,0.0498,0.0484,0.0397,0.0505,0.0517,0.0412,0.0416,0.0583,0.0601,0.0618,0.0816,0.0699,0.0706,0.0711,0.1005,0.1009,0.1012,0,0,0,0,0,0,0.0626,0.0592,0.0372,0.0506,0.0485,0.0486,0.039,0.0396,0.0452,0.0488,0.0507,0.0465,0.0584,0.0607,0.0718,0.0819,0.071,0.0717,0.1001,0.1006,0.1011,0.1111,0,0,0,0,0,0,0.0636,0.0593,0.0551,0.0499,0.0475,0.0386,0.0388,0.0395,0.043,0.0437,0.0539,0.0557,0.0587,0.0706,0.0726,0.0828,0.0723,0.0996,0.1003,0.1009,0.1103,0.1118,0.1132,0,0,0,0,0,0.0648,0.0553,0.0546,0.0516,0.0401,0.0386,0.0389,0.0405,0.0432,0.0462,0.0535,0.0556,0.0762,0.0715,0.0737,0.0844,0.0993,0.1001,0.1009,0.1096,0.1115,0.1131,0,0,0,0,0,0,0.0717,0.0548,0.0541,0.0405,0.0417,0.0394,0.0403,0.0431,0.0509,0.0534,0.0589,0.0613,0.0754,0.0776,0.0723,0.0948,0.0886,0.0899,0.0946,0.0964,0.0978,0.0977,0.0729,0,0,0,0,0,0.0701,0.0571,0.0509,0.0421,0.0417,0.0432,0.0439,0.0459,0.0496,0.0532,0.061,0.0699,0.0795,0.0858,0.0932,0.105,0.1034,0.1136,0.115,0.1162,0.1176,0.1204,0.1221,0.1038,0.1038,0.1037,0,0,0.0708,0.0597,0.0533,0.0429,0.0434,0.0457,0.0443,0.0456,0.0526,0.0547,0.0687,0.0753,0.0834,0.0968,0.1035,0.1007,0.1208,0.1172,0.1181,0.119,0.1213,0.1231,0.1246,0.1043,0.1042,0.1041,0,0,0.0668,0.0565,0.0474,0.0486,0.0471,0.0487,0.0504,0.0529,0.0594,0.073,0.0759,0.0865,0.1039,0.1086,0.1142,0.1277,0.1277,0.1334,0.1421,0.1448,0.1462,0.1475,0.1476,0.1488,0.1348,0.1348,0.1348,0,0.0714,0.0566,0.0478,0.0453,0.0489,0.0511,0.0551,0.0606,0.069,0.078,0.0803,0.1054,0.1096,0.1247,0.1295,0.1312,0.1322,0.1347,0.1464,0.1476,0.1487,0.1485,0.1497,0.1354,0.1353,0.1353,0.1352,0,0.0617,0.0576,0.0546,0.0506,0.0551,0.0578,0.0646,0.0738,0.0849,0.0938,0.1144,0.1202,0.1355,0.1392,0.1398,0.152,0.15,0.1468,0.141,0.1511,0.1503,0.1513,0.1362,0.136,0.1358,0.1357,0,0,0.0539,0.0487,0.0489,0.0546,0.0595,0.0632,0.0761,0.0899,0.1007,0.1169,0.1346,0.1494,0.1547,0.1605,0.1616,0.1638,0.1704,0.1604,0.1603,0.159,0.1767,0.1629,0.1626,0.1705,0.1708,0.171,0.1729,0,0.0531,0.05,0.0488,0.0602,0.0638,0.0748,0.0862,0.1014,0.116,0.1332,0.1469,0.1638,0.1623,0.1707,0.1734,0.1729,0.1739,0.1702,0.1687,0.1686,0.1537,0.1636,0.1718,0.1736,0.1738,0.174,0.1741,0,0.0444,0.0451,0.0518,0.0674,0.0705,0.081,0.1031,0.1157,0.1383,0.1501,0.1697,0.179,0.1925,0.186,0.1922,0.1914,0.1854,0.1816,0.1815,0.1658,0.1567,0.1618,0.1759,0.1757,0.1756,0.1755,0.1754,0,0.0416,0.0493,0.056,0.0611,0.0766,0.0895,0.1044,0.125,0.1357,0.1645,0.1737,0.1931,0.2023,0.2039,0.1987,0.1986,0.1987,0.1965,0.1775,0.1763,0.1832,0.1818,0.1958,0.1958,0.1958,0.1957,0.1957,0,0.0382,0.0449,0.0575,0.0626,0.078,0.0943,0.1132,0.129,0.1495,0.1611,0.1841,0.1894,0.2068,0.2089,0.2043,0.1947,0.2039,0.1809,0.1771,0.1875,0.1866,0.1838,0.1824,0.1958,0.1958,0.1958,0.1958,0,0.0327,0.0377,0.048,0.0678,0.0759,0.0909,0.1157,0.1258,0.1479,0.163,0.1733,0.1915,0.1985,0.2055,0.2057,0.1977,0.1914,0.1819,0.1925,0.1888,0.1667,0.1659,0.1691,0.1686,0.1683,0.168,0.1677,0,0.0277,0.0318,0.05,0.0562,0.067,0.0889,0.0993,0.1245,0.1325,0.1568,0.1598,0.1769,0.1862,0.1813,0.1865,0.1847,0.1772,0.1748,0.173,0.1686,0.1646,0.1644,0.164,0.1671,0.167,0.1669,0.1668,0,0.0233,0.0293,0.0368,0.0484,0.0615,0.0732,0.0927,0.0965,0.1223,0.138,0.1488,0.1587,0.1641,0.1721,0.1717,0.166,0.1812,0.1708,0.1716,0.1699,0.1662,0.1625,0.1627,0.1655,0.1657,0.1658,0.1659,0,0.0195,0.0222,0.0305,0.0414,0.0516,0.0586,0.0709,0.0841,0.0968,0.1252,0.1242,0.1436,0.1598,0.1607,0.1566,0.1578,0.1559,0.1509,0.1527,0.1542,0.1482,0.1413,0.1314,0,0,0,0,0,0.0173,0.0183,0.0239,0.0334,0.0408,0.0486,0.0637,0.0747,0.0956,0.1005,0.1155,0.1218,0.1317,0.1377,0.1361,0.1431,0.1512,0.1396,0.145,0.1582,0.1597,0.1539,0,0,0,0,0,0,0.0149,0.0184,0.02,0.0227,0.0275,0.0362,0.0457,0.0598,0.0652,0.0877,0.0941,0.1115,0.1212,0.1323,0.133,0.1345,0.1347,0.1503,0.1498,0.1574,0.1587,0.1599,0.1544,0,0,0,0,0]},{"header":{"parameterUnit":"m.s-1","parameterCategory":2,"la1":30.2991,"la2":30.254,"lo1":-89.0895,"lo2":-89.0444,"dy":0.0017,"dx":0.0017,"nx":28,"ny":28,"refTime":"2025-06-02T03:00:00:Z","depth":"4","parameterNumber":3,"parameterNumberName":"V-component_of_CURRENTS"},"data":[0,0,0,0,0,0,0,0,0,0,0,0,0,0,0,0,0,0,0,0,0,0,0,0,0,0,0,0,0,0,0,0,0,0,0,0,0,0,0,0,0,0,0,0,0,0,0,0,0,0,0,0,0,0,0,0,0,0,0.046,0.046,0,0.0487,0.0487,0.0487,0.0499,0.0499,0.05,0.05,0.0486,0.0485,0.0485,0,0,0,0,0,0,0,0,0,0,0,0,0,0.0253,0.0258,0.046,0.046,0.0461,0.0487,0.0487,0.0487,0.0499,0.0499,0.05,0.05,0.0486,0.0485,0.0485,0,0,0,0,0,0,0,0,0,0,0,0,0,0.0316,0.0259,0.046,0.0472,0.0473,0.0487,0.0487,0.0487,0.0499,0.0499,0.05,0.05,0.0486,0.0485,0.0485,0.0473,0,0,0.0482,0.0482,0,0,0,0,0,0,0,0,0.0313,0.0323,0.047,0.0471,0.0473,0.0492,0.0409,0.0481,0.0499,0.0487,0.05,0.05,0.0486,0.0485,0.0486,0.0473,0.0472,0.0482,0.0481,0.0481,0.0481,0,0,0,0,0,0,0,0.0308,0.0321,0.0468,0.047,0.0472,0.0419,0.043,0.0422,0.0481,0.0488,0.0489,0.0496,0.0486,0.0487,0.0486,0.0472,0.0482,0.0481,0.0481,0.048,0.0364,0.0362,0,0,0,0,0,0,0.032,0.0319,0.0467,0.0469,0.0395,0.0424,0.0435,0.0484,0.0482,0.0484,0.0496,0.0497,0.0488,0.0487,0.0485,0.0449,0.0481,0.048,0.048,0.0367,0.0364,0.0361,0,0,0,0,0,0,0.0316,0.0334,0.0466,0.0393,0.0406,0.0429,0.0481,0.0484,0.0504,0.049,0.0489,0.0516,0.0488,0.0487,0.0485,0.0449,0.048,0.0479,0.037,0.0366,0.0362,0.039,0,0,0,0,0,0,0.031,0.0334,0.0371,0.0396,0.0411,0.0486,0.0482,0.0484,0.0508,0.051,0.0506,0.0504,0.0489,0.0486,0.0484,0.0448,0.0479,0.0373,0.0368,0.0364,0.0392,0.0387,0.0383,0,0,0,0,0,0.0304,0.0359,0.0374,0.0391,0.0465,0.0487,0.049,0.0501,0.0509,0.052,0.0512,0.0505,0.0451,0.0486,0.0483,0.0446,0.0376,0.037,0.0364,0.0394,0.0388,0.0383,0,0,0,0,0,0,0.0275,0.0366,0.0383,0.0461,0.0475,0.049,0.0513,0.0514,0.0518,0.0525,0.0507,0.0504,0.0479,0.0456,0.0493,0.0388,0.0398,0.0391,0.0421,0.0415,0.0411,0.0399,0.0478,0,0,0,0,0,0.0291,0.0375,0.041,0.0472,0.0488,0.0502,0.0514,0.052,0.0527,0.0531,0.0522,0.049,0.0448,0.0434,0.0405,0.0373,0.0328,0.033,0.0326,0.0323,0.0305,0.0187,0.0171,0.0342,0.0342,0.0342,0,0,0.0282,0.0358,0.0392,0.0473,0.0495,0.0511,0.0512,0.0543,0.0544,0.0527,0.0534,0.0495,0.0438,0.0394,0.0376,0.0376,0.0258,0.0315,0.0314,0.0297,0.018,0.0163,0.0149,0.0338,0.0339,0.0339,0,0,0.0321,0.0392,0.0464,0.0485,0.0536,0.0536,0.0549,0.0567,0.0569,0.0569,0.0529,0.0473,0.0447,0.0372,0.0335,0.0285,0.0247,0.0261,0.0227,0.0114,0.01,0.0087,0.0055,0.0039,0.0249,0.0249,0.0249,0,0.0309,0.0415,0.0473,0.0532,0.0549,0.0551,0.0579,0.0573,0.0578,0.0568,0.0578,0.0463,0.0426,0.032,0.0282,0.0277,0.0228,0.0267,0.0111,0.0097,0.0082,0.0053,0.0034,0.025,0.025,0.025,0.025,0,0.0389,0.0453,0.0494,0.0578,0.0594,0.0622,0.0619,0.0621,0.0621,0.0597,0.0528,0.0457,0.0376,0.0333,0.0296,0.0151,0.0159,0.0134,0.0137,0.0067,0.0041,0.0021,0.0251,0.025,0.025,0.025,0,0,0.0414,0.0529,0.0543,0.0583,0.0622,0.0649,0.0644,0.0635,0.0622,0.0582,0.0545,0.0418,0.036,0.0305,0.0224,0.0104,-0.0024,0.0065,0.0059,0.0057,-0.0229,-0.0156,-0.017,-0.0084,-0.0089,-0.0092,-0.0188,0,0.0455,0.0569,0.0611,0.0667,0.0705,0.0701,0.0693,0.0676,0.0646,0.0606,0.0495,0.0433,0.0353,0.0304,0.0162,0.0024,-0.0085,0.0008,-0.0183,-0.0188,-0.0097,-0.0195,-0.0107,-0.0203,-0.0208,-0.0211,-0.0213,0,0.0526,0.0591,0.0672,0.0724,0.0741,0.0779,0.0776,0.0772,0.0692,0.0653,0.0544,0.046,0.0283,0.0235,-0.0053,0.0007,-0.0122,-0.0227,-0.0233,-0.0196,-0.0155,-0.0137,-0.025,-0.0247,-0.0244,-0.0242,-0.0239,0,0.054,0.0637,0.0713,0.0732,0.0776,0.0827,0.086,0.081,0.0789,0.0702,0.0649,0.0448,0.0359,0.0137,-0.0085,-0.0084,-0.0377,-0.0384,-0.0432,-0.0423,-0.0465,-0.0451,-0.06,-0.06,-0.06,-0.0599,-0.0599,0,0.0576,0.0631,0.0752,0.0785,0.0865,0.09,0.0951,0.0927,0.0872,0.0809,0.0689,0.0562,0.0314,0.0121,-0.0081,-0.0308,-0.0372,-0.046,-0.0473,-0.0444,-0.0426,-0.0475,-0.0459,-0.0603,-0.0602,-0.0601,-0.0601,0,0.058,0.0649,0.0734,0.0833,0.0886,0.0962,0.1051,0.1046,0.0994,0.0907,0.0876,0.0646,0.0399,0.0175,-0.0157,-0.0272,-0.05,-0.0562,-0.0464,-0.0464,-0.0461,-0.0444,-0.0618,-0.0617,-0.0616,-0.0615,-0.0615,0,0.0594,0.0648,0.0787,0.0846,0.0922,0.1044,0.1097,0.1114,0.107,0.0916,0.0836,0.0636,0.0458,0.0086,-0.0156,-0.0451,-0.0505,-0.0569,-0.0584,-0.0483,-0.0478,-0.0462,-0.0446,-0.0613,-0.0613,-0.0613,-0.0613,0,0.0593,0.066,0.0709,0.0849,0.0965,0.1048,0.1127,0.1098,0.1047,0.1006,0.0783,0.0599,0.0352,0.0076,-0.0115,-0.0358,-0.0502,-0.056,-0.0564,-0.0579,-0.0479,-0.0471,-0.0456,-0.0609,-0.061,-0.061,-0.061,0,0.058,0.0626,0.0718,0.0829,0.0949,0.1012,0.1066,0.1029,0.1007,0.0842,0.0764,0.0522,0.0388,0.0119,-0.0106,-0.0272,-0.0328,-0.0375,-0.039,-0.0396,-0.0301,-0.0139,-0.0203,0,0,0,0,0,0.0573,0.062,0.0701,0.0806,0.0906,0.0995,0.1036,0.105,0.1014,0.0869,0.082,0.0586,0.0293,0.014,-0.0018,-0.0102,-0.036,-0.029,-0.0421,-0.0591,-0.0595,-0.0517,0,0,0,0,0,0,0.0569,0.0636,0.0679,0.0759,0.083,0.0943,0.0983,0.0955,0.0857,0.0799,0.0635,0.0578,0.0279,0.0388,-0.0013,-0.0067,-0.0163,-0.0425,-0.0427,-0.0589,-0.0592,-0.0595,-0.0516,0,0,0,0,0]}]]